Flag Weather past 2 weeks in Fevik, Norway

Now
41 °F

Quite cool.


Feels Like: 37 °F
Forecast: 43 / 46 °F
Wind: 6 mph from Northeast

Location: Torungen Fyr

Current Time: Nov 26, 2014 at 4:25:19 PM

Latest Report: Nov 26, 2014 at 3:00 PM


Visibility: N/A

Pressure: 30.27 "Hg

Humidity: 81%

Dew point: 35 °F

Location of FevikLocation

Historic Weather in Fevik — Graph

°F

Fevik temperature yesterday

Maximum temperature yesterday: 47 °F (at 1:00 PM)
Minimum temperature yesterday: 38 °F (at 9:00 PM)
Average temperature yesterday: 43 °F

Past Weeks' High & Low Weather Summary

 TemperatureHumidityPressure
High51 °F (Nov 12, 3:00 AM)98% (Nov 23, 10:00 PM)30.50 "Hg (Nov 23, 10:00 PM)
Low36 °F (Nov 21, 10:00 AM)68% (Nov 24, 6:00 PM)29.72 "Hg (Nov 24, 6:00 AM)
Average44 °F88%30.14 "Hg
* Reported Nov 11 3:00 PM — Nov 26 3:00 PM, Fevik, Weather by CustomWeather, © 2014

Note: Actual official high and low records may vary slightly from our data, if they occured in-between our weather recording intervals... More about our weather records

Advertising

Fevik weather history for previous 24 hours

 ConditionsComfort  
Time TempWeatherWind HumidityBarometerVisibility
3:00 PM
Nov 26
41 °FQuite cool.6 mph81%30.27 "HgN/A
2:00 PM41 °FQuite cool.6 mph78%30.28 "HgN/A
1:00 PM41 °FQuite cool.7 mph81%30.29 "HgN/A
12:00 PM39 °FChilly.7 mph79%30.30 "HgN/A
11:00 AM39 °FChilly.7 mph82%30.30 "HgN/A
10:00 AM39 °FChilly.7 mph81%30.30 "HgN/A
9:00 AM39 °FChilly.7 mph81%30.29 "HgN/A
8:00 AM39 °FChilly.5 mph84%30.29 "HgN/A
7:00 AM39 °FChilly.5 mph85%30.29 "HgN/A
6:00 AM38 °FChilly.6 mph86%30.29 "HgN/A
5:00 AM38 °FChilly.6 mph88%30.28 "HgN/A
4:00 AM38 °FChilly.5 mph87%30.27 "HgN/A
3:00 AM39 °FChilly.6 mph87%30.28 "HgN/A
2:00 AM40 °FChilly.6 mph87%30.27 "HgN/A
1:00 AM39 °FChilly.3 mph86%30.28 "HgN/A
12:00 AM39 °FChilly.3 mph88%30.28 "HgN/A
11:00 PM
Nov 25
39 °FChilly.3 mph88%30.28 "HgN/A
10:00 PM39 °FChilly.5 mph90%30.27 "HgN/A
9:00 PM38 °FChilly.5 mph91%30.27 "HgN/A
8:00 PM40 °FChilly.5 mph92%30.26 "HgN/A
7:00 PM40 °FQuite cool.3 mph90%30.26 "HgN/A
6:00 PM42 °FQuite cool.2 mph86%30.25 "HgN/A
5:00 PM46 °FCool.5 mph86%30.24 "HgN/A
4:00 PM47 °FCool.5 mph81%30.24 "HgN/A
Weather by CustomWeather, © 2014

See weather overviewHow to use our weather pages